Showing default

STPSAT-6, 49817

Orbit data source: Space-Track

STPSAT-6, 49817 is a payload satellite owned by USAF STP (US) in GEO that was launched on Tue, 07 Dec 2021 UTC via an ATLAS V 551 launch vehicle from the Air Force Eastern Test Range (AFETR). Payload-class satellites include a variety of spacecraft equipped with specific instruments for various scientific and technological missions. These include communications satellites like Starlink; space stations such as the ISS; scientific satellites like the Hubble; Earth observation satellites from companies like Planet Labs, Umbra, and HawkEye 360; GPS; miniature CubeSats for education and research; and military/defense satellites.

Loading next visibility...
Identifier
49817, 2021-118A
Orbit
GEO
Last TLE update
12 hours ago
Origin
Manufacturer
NGAS
Mission
Operational Defense Technology
Bus & Motor
A-500, Unknown motor
Mass
~1,000 kg wet, ~1,000 kg dry
Launch date (UTC)
2021-12-07 (4 years ago)
Launch vehicle
ATLAS V 551
Launch site
Air Force Eastern Test Range (AFETR)
Object type
Payload
Rocket body
Debris
Shape & HBR
Box + 1 Pan, 2 m
Radar Cross Section
2.500 m², Large (>1 m²)

Expand to show TLE details & history

TLE from 12 hours ago
0 STPSAT-6
1 49817U 21118A   25182.62551412 -.00000041  00000-0  00000+0 0  9991
2 49817   0.0155  50.9272 0000719 264.5247  77.8976  1.00270477 13055
Epoch: 2025-07-01T15:00Z
TLE epoch observation values (Epoch: 2025-07-01T15:00:44.419Z)
Latitude
-0.00317°
Longitude
-111.73372°
Altitude
35,785.829 km
Speed
3.075 km/s
True Right ascension
02h 13m 28s
True Declination
0° 00' 11"
Sunlit
Object was in daylight at epoch
Visualization orbit readout
Latitude
0.00658°
Longitude
62.01034°
Altitude
35,787.383 km
Speed
3.075 km/s
Apparent Right ascension
13h 44m 58s
Apparent Declination
-6° 13' 14"
Sunlit
Object is in daylight
Visualization observer readout
Local Sidereal Time
14:14:59
Azimuth
190.284° SSW
Elevation
43.347°
Doppler factor
1
Orbital elements
Apogee altitude
35,791.064 km
Perigee altitude
35,785 km
Semi-major axis
42,166.169 km
Eccentricity
0.00007
Inclination
0.0155°
RAAN
50.9272°
Arg. of periapsis
264.5247°
True anomaly
Unknown
Mean anomaly
77.8976°
Eccentric anomaly
Unknown
Mean motion
0.25067 °/min
Orbital period
1,436.17 mins
BSTAR
0
Loading historical data...
49817 neighbors
Loading maneuver chart data...
Loading SW <> Apogee altitude chart data...
Loading historical data...
Loading historical data...
Loading historical data...
Loading historical data...
Loading historical data...
Loading historical data...
Loading historical data...
Other satellites on launch #118 in the year 2021 (2021-12-07 UTC)

STPSAT-6 Visibility forecast

Observer location: undefined°, undefined°

Span
Click to sort rows by Start time (UTC) header in descending order
Start Az.
Max El. time (UTC)
Max El. Az.
Max El.
End time (UTC)
End Az.
1440 mins2025-07-02 02:33:53.754Z190.28° SSW2025-07-02 22:21:53.754Z190.284° SSW34.473°2025-07-03 02:33:53.754Z190.291° SSW
|